Socorro, NM

2:34 PM MST on December 14, 2017 (GMT -0700)
Socorro Municipal

Weather History for KONM - July, 2013

Change the Weather History Date:

Thursday, July 4, 2013

  Actual Average Record
Temperature  
Mean Temperature 78 °F -  
Max Temperature 93 °F 93 °F 99 °F (2017)
Min Temperature 63 °F 60 °F 60 °F (2011)
Cooling Degree Days 13    
Growing Degree Days 28 (Base 50)    
Moisture  
Dew Point 47 °F    
Average Humidity 36    
Maximum Humidity 72    
Minimum Humidity 14    
Precipitation  
Precipitation 0.00 in - - ()
Sea Level Pressure  
Sea Level Pressure 30.01 in    
Wind  
Wind Speed 7 mph (SSE)    
Max Wind Speed 21 mph    
Max Gust Speed 28 mph    
Visibility 10 miles    
Events      
Averages and records for this station are not official NWS values.
T = Trace of Precipitation, MM = Missing Value Source: NWS Daily Summary

Daily Weather History Graph

Daily Weather History Graph

Search for Another Location

Airport or City:

Trip Planner

Search our weather history database for the weather conditions in past years. The results will help you decide how hot, cold, wet, or windy it might be!

Date:

Astronomy

Jul. 04, 2013 Rise Set
Actual Time 6:01 AM MDT 8:22 PM MDT
Civil Twilight 5:32 AM MDT 8:51 PM MDT
Nautical Twilight 4:56 AM MDT 9:27 PM MDT
Astronomical Twilight 4:17 AM MDT 10:05 PM MDT
Moon 3:16 AM MDT (7/4) 5:32 PM MDT (7/4)
Length of Visible Light 15h 19m
Length of Day
14h 21m
Waning Crescent, 11% of the Moon is Illuminated
Jul 4
Waning Crescent
Jul 8
New
Jul 15
First Quarter
Jul 22
Full
Jul 29
Last Quarter

Hourly Weather History & Observations

Time (MDT) Temp. Dew Point Humidity Pressure Visibility Wind Dir Wind Speed Gust Speed Precip Events Conditions
12:15 AM 68.9 °F 54.9 °F 61% 30.08 in 10.0 mi West 4.6 mph - N/A   Clear
12:35 AM 71.2 °F 52.0 °F 51% 30.05 in 10.0 mi WSW 16.1 mph - N/A   Clear
12:55 AM 73.6 °F 48.2 °F 41% 30.02 in 10.0 mi WSW 18.4 mph 27.6 mph N/A   Clear
1:15 AM 73.9 °F 47.5 °F 39% 30.01 in 10.0 mi SW 20.7 mph 26.5 mph N/A   Scattered Clouds
1:35 AM 73.8 °F 47.7 °F 40% 30.01 in 10.0 mi WSW 17.3 mph 24.2 mph N/A   Clear
1:55 AM 73.6 °F 47.1 °F 39% 30.01 in 10.0 mi SW 4.6 mph 18.4 mph N/A   Clear
2:15 AM 71.6 °F 48.6 °F 44% 30.02 in 10.0 mi ESE 5.8 mph - N/A   Clear
2:35 AM 70.7 °F 50.2 °F 48% 30.02 in 10.0 mi SE 3.5 mph - N/A   Clear
2:55 AM 69.1 °F 51.1 °F 53% 30.02 in 10.0 mi NW 4.6 mph - N/A   Clear
3:15 AM 69.1 °F 51.1 °F 53% 30.01 in 10.0 mi North 5.8 mph - N/A   Clear
3:35 AM 69.1 °F 50.9 °F 52% 30.01 in 10.0 mi Calm Calm - N/A   Clear
3:55 AM 67.5 °F 52.3 °F 58% 30.01 in 10.0 mi NNW 4.6 mph - N/A   Clear
4:15 AM 67.1 °F 52.9 °F 60% 30.01 in 10.0 mi North 4.6 mph - N/A   Clear
4:35 AM 66.4 °F 52.7 °F 61% 30.01 in 10.0 mi North 4.6 mph - N/A   Clear
4:55 AM 66.2 °F 52.7 °F 62% 30.02 in 10.0 mi North 3.5 mph - N/A   Clear
5:15 AM 65.5 °F 52.3 °F 62% 30.02 in 10.0 mi North 4.6 mph - N/A   Clear
5:35 AM 64.8 °F 52.9 °F 65% 30.03 in 10.0 mi Calm Calm - N/A   Clear
5:55 AM 63.5 °F 53.8 °F 71% 30.03 in 10.0 mi West 3.5 mph - N/A   Clear
6:15 AM 63.1 °F 54.1 °F 72% 30.03 in 10.0 mi WSW 3.5 mph - N/A   Clear
6:35 AM 63.9 °F 54.0 °F 70% 30.03 in 10.0 mi WSW 4.6 mph - N/A   Clear
6:55 AM 64.8 °F 54.5 °F 69% 30.04 in 10.0 mi WSW 4.6 mph - N/A   Clear
7:15 AM 66.6 °F 54.5 °F 65% 30.04 in 10.0 mi SW 4.6 mph - N/A   Clear
7:35 AM 69.1 °F 53.6 °F 58% 30.05 in 10.0 mi SE 4.6 mph - N/A   Clear
7:55 AM 68.9 °F 54.0 °F 59% 30.05 in 10.0 mi Calm Calm - N/A   Clear
8:15 AM 71.4 °F 52.2 °F 51% 30.06 in 10.0 mi Calm Calm - N/A   Clear
8:35 AM 72.7 °F 50.2 °F 45% 30.06 in 10.0 mi Calm Calm - N/A   Clear
8:55 AM 73.6 °F 50.7 °F 45% 30.07 in 10.0 mi South 4.6 mph - N/A   Clear
9:15 AM 74.5 °F 50.4 °F 43% 30.07 in 10.0 mi ESE 3.5 mph - N/A   Clear
9:35 AM 74.5 °F 50.7 °F 43% 30.07 in 10.0 mi Calm Calm - N/A   Clear
9:55 AM 75.6 °F 50.5 °F 41% 30.07 in 10.0 mi South 3.5 mph - N/A   Clear
10:15 AM 77.7 °F 50.2 °F 38% 30.07 in 10.0 mi South 4.6 mph - N/A   Clear
10:35 AM 78.4 °F 47.8 °F 34% 30.07 in 10.0 mi Calm Calm - N/A   Clear
10:55 AM 80.1 °F 47.3 °F 32% 30.06 in 10.0 mi ESE 3.5 mph - N/A   Clear
11:15 AM 81.1 °F 48.2 °F 32% 30.05 in 10.0 mi South 4.6 mph - N/A   Clear
11:35 AM 82.6 °F 48.4 °F 30% 30.05 in 10.0 mi SSE 5.8 mph - N/A   Clear
11:55 AM 83.7 °F 47.5 °F 28% 30.05 in 10.0 mi SSE 6.9 mph - N/A   Clear
12:15 PM 84.6 °F 46.4 °F 26% 30.04 in 10.0 mi SSE 9.2 mph - N/A   Clear
12:35 PM 85.5 °F 45.5 °F 25% 30.04 in 10.0 mi SSE 8.1 mph - N/A   Clear
12:55 PM 86.2 °F 45.3 °F 24% 30.03 in 10.0 mi South 8.1 mph - N/A   Clear
1:15 PM 88.0 °F 45.0 °F 22% 30.03 in 10.0 mi SE 4.6 mph - N/A   Clear
1:35 PM 88.3 °F 45.1 °F 22% 30.02 in 10.0 mi SE 9.2 mph - N/A   Clear
1:55 PM 89.1 °F 44.8 °F 21% 30.01 in 10.0 mi East 6.9 mph - N/A   Clear
2:15 PM 90.0 °F 44.6 °F 21% 30.00 in 10.0 mi ENE 3.5 mph - N/A   Clear
2:35 PM 90.1 °F 44.4 °F 20% 29.99 in 10.0 mi SE 5.8 mph - N/A   Clear
2:55 PM 91.6 °F 43.9 °F 19% 29.99 in 10.0 mi ESE 6.9 mph - N/A   Clear
3:15 PM 92.3 °F 40.6 °F 17% 29.98 in 10.0 mi Calm Calm - N/A   Clear
3:35 PM 91.9 °F 38.1 °F 15% 29.97 in 10.0 mi ENE 3.5 mph - N/A   Clear
3:55 PM 93.9 °F 36.9 °F 14% 29.96 in 10.0 mi ENE 6.9 mph - N/A   Clear
4:15 PM 92.7 °F 37.8 °F 15% 29.95 in 10.0 mi Calm Calm - N/A   Clear
4:35 PM 92.1 °F 38.5 °F 15% 29.95 in 10.0 mi Calm Calm - N/A   Clear
4:55 PM 93.0 °F 37.8 °F 14% 29.95 in 10.0 mi Calm Calm - N/A   Clear
5:15 PM 91.9 °F 37.4 °F 15% 29.93 in 10.0 mi SSE 4.6 mph - N/A   Clear
5:35 PM 91.8 °F 36.7 °F 14% 29.93 in 10.0 mi Calm Calm - N/A   Clear
5:55 PM 91.6 °F 36.7 °F 14% 29.93 in 10.0 mi ESE 3.5 mph - N/A   Clear
6:15 PM 92.3 °F 37.2 °F 14% 29.93 in 10.0 mi SE 4.6 mph - N/A   Clear
6:35 PM 91.6 °F 38.5 °F 16% 29.93 in 10.0 mi SSE 9.2 mph - N/A   Clear
6:55 PM 91.2 °F 40.6 °F 17% 29.93 in 10.0 mi SE 10.4 mph - N/A   Clear
7:15 PM 90.7 °F 41.5 °F 18% 29.93 in 10.0 mi SSE 9.2 mph - N/A   Clear
7:35 PM 89.6 °F 43.0 °F 20% 29.94 in 10.0 mi SSE 9.2 mph - N/A   Clear
7:55 PM 88.5 °F 42.4 °F 20% 29.94 in 10.0 mi SSE 6.9 mph - N/A   Clear
8:15 PM 87.3 °F 42.8 °F 21% 29.95 in 10.0 mi SSE 9.2 mph - N/A   Clear
8:35 PM 85.1 °F 44.1 °F 24% 29.96 in 10.0 mi SSE 10.4 mph - N/A   Clear
8:55 PM 84.6 °F 43.2 °F 23% 29.97 in 10.0 mi South 11.5 mph - N/A   Clear
9:15 PM 84.2 °F 44.1 °F 24% 29.98 in 10.0 mi South 9.2 mph - N/A   Clear
9:35 PM 83.5 °F 45.0 °F 26% 29.98 in 10.0 mi SSE 8.1 mph - N/A   Clear
9:55 PM 81.7 °F 45.9 °F 28% 29.99 in 10.0 mi SE 6.9 mph - N/A   Clear
10:15 PM 80.1 °F 46.4 °F 31% 30.00 in 10.0 mi SSE 5.8 mph - N/A   Clear
10:35 PM 78.8 °F 46.8 °F 32% 30.00 in 10.0 mi South 4.6 mph - N/A   Clear
10:55 PM 78.8 °F 46.8 °F 32% 30.00 in 10.0 mi North 3.5 mph - N/A   Clear
11:15 PM 78.3 °F 47.7 °F 34% 30.00 in 10.0 mi Calm Calm - N/A   Clear
11:35 PM 77.5 °F 48.7 °F 36% 30.00 in 10.0 mi ENE 3.5 mph - N/A   Clear
11:55 PM 75.9 °F 50.0 °F 40% 30.01 in 10.0 mi ENE 3.5 mph - N/A   Clear